Погода в Зальцведеле

Германия     52°50′31″N   11°10′16″E
темп.,
°C
ветер,
м/с
пор.,
м/с
влажн.,
%
обл.,
%
осадки,
мм/ч
давл.,
гПа
погр.,
м
8 мая, сб
сб823:00+3з35865 0.0 101779
02:00+2зюз47940 0.0 1018137
05:00+1зюз37965 0.0 1018136
08:00+5зюз46859 0.0 1019284
11:00+10юз4458100 0.0 10181151
14:00+12ююз4550100 0.0 10171767
17:00+13ю4651100 0.0 10161644
20:00+11вюв3368100 0.0 101456
9 мая, вс
вс923:00+9ююв51380100 0.3 1013444
02:00+10ююв6146791 0.3 1011351
05:00+7ю3684100 0.0 101090
08:00+12ю3881100 0.0 1009207
11:00+19ю466422 0.0 1009675
14:00+22ю5754100 0.0 10081100
17:00+23ююв6106478 0.0 1007919
20:00+18юв4108080 0.0 1006208
10 мая, пн
пн1023:00+16ююв614785 0.0 1006257
02:00+14ююв4118482 0.0 1006194
05:00+11юв489335 0.0 1006145
08:00+14юв58815 0.0 1006233
11:00+20ююв46645 0.0 1005613
14:00+24ю455761 0.0 1005969
17:00+22зюз81070100 0.3 1007930
20:00+17зсз4882100 0.4 1008293
11 мая, вт
вт1123:00+15сз3683100 0.0 1010219
02:00+13ссз3791100 0.1 1010373
05:00+11с4994100 1.2 1010380
08:00+10с61198100 7.3 1011427
11:00+13с6884100 0.1 1011870
14:00+16ссв5668100 0.2 10111233
17:00+15ссв4678100 0.1 1010770
20:00+13ссв4683100 0.1 1010311
12 мая, ср
ср1223:00+12ссв4784100 0.0 1010367
02:00+11с3687100 0.0 1009338
05:00+10с4799100 7.6 1007316
08:00+9сз3698100 10.9 1008270
11:00+11сз4595100 0.0 1008370
14:00+11сз4593100 0.1 1008483
17:00+11сз3695100 0.1 1009452
20:00+11сз4995100 0.1 1009387